Flag for U.S.A. Weather past 2 weeks in Harrisburg, Pennsylvania, U.S.A.

Now
53 °F

Clear.


Feels Like: 52 °F
Forecast: 51 / 71 °F
Wind: 5 mph from Southwest

Location: Capital City Airport

Current Time: Sep 23, 2014 at 11:22:18 PM

Latest Report: Sep 23, 2014 at 10:56 PM


Visibility: 10 mi

Pressure: 30.39 "Hg

Humidity: 86%

Dew point: 49 °F

Location of HarrisburgLocation

Historic Weather in Harrisburg — Graph

°F

Harrisburg temperature yesterday

Maximum temperature yesterday: 67 °F (at 11:56 AM)
Minimum temperature yesterday: 57 °F (at 11:56 PM)
Average temperature yesterday: 63 °F

Past Weeks' High & Low Weather Summary

 TemperatureHumidityPressure
High84 °F (Sep 21, 3:56 PM)93% (Sep 13, 11:56 AM)30.37 "Hg (Sep 13, 11:56 AM)
Low46 °F (Sep 14, 5:56 AM)31% (Sep 18, 4:56 PM)29.62 "Hg (Sep 21, 4:56 PM)
Average64 °F69%30.10 "Hg
* Reported Sep 8 9:56 PM — Sep 23 9:56 PM, Harrisburg, Weather by CustomWeather, © 2014

Note: Actual official high and low records may vary slightly from our data, if they occured in-between our weather recording intervals... More about our weather records

Advertising

Harrisburg weather history for previous 24 hours

 ConditionsComfort  
Time TempWeatherWind HumidityBarometerVisibility
9:56 PM
Sep 23
55 °FClear.3 mph80%30.37 "Hg10 mi
8:56 PM57 °FClear.No wind74%30.37 "Hg10 mi
7:56 PM59 °FSunny.5 mph72%30.35 "Hg10 mi
6:56 PM68 °FSunny.3 mph45%30.33 "Hg10 mi
5:56 PM70 °FSunny.7 mph41%30.32 "Hg10 mi
4:56 PM71 °FSunny.6 mph39%30.31 "Hg10 mi
3:56 PM71 °FSunny.5 mph39%30.32 "Hg10 mi
2:56 PM69 °FSunny.6 mph41%30.34 "Hg10 mi
1:56 PM67 °FSunny.5 mph44%30.35 "Hg10 mi
12:56 PM65 °FSunny.6 mph47%30.36 "Hg10 mi
11:56 AM63 °FSunny.3 mph50%30.37 "Hg10 mi
10:56 AM60 °FSunny.6 mph53%30.36 "Hg10 mi
9:56 AM57 °FSunny.3 mph60%30.37 "Hg10 mi
8:56 AM54 °FSunny.5 mph69%30.36 "Hg10 mi
7:56 AM49 °FSunny.3 mph80%30.34 "Hg10 mi
6:56 AM48 °FClear.No wind80%30.32 "Hg10 mi
5:56 AM48 °FClear.5 mph80%30.30 "Hg10 mi
4:56 AM47 °FClear.7 mph83%30.28 "Hg10 mi
3:56 AM48 °FClear.6 mph80%30.26 "Hg10 mi
2:56 AM49 °FClear.6 mph77%30.25 "Hg10 mi
1:56 AM47 °FClear.3 mph80%30.25 "Hg10 mi
12:56 AM54 °FClear.3 mph62%30.24 "Hg10 mi
11:56 PM
Sep 22
57 °FPassing clouds.7 mph53%30.24 "Hg10 mi
Weather by CustomWeather, © 2014

See weather overviewHow to use our weather pages